Location: Bas-Clignon
(44.2000°N, 6.6333°E)
Time: 01:48:04
(UTC+00:00)

SL-08 ROCKET BODY - Pass Details

Date: 03 February 2023
Orbit: 896 x 963 km, 83.0° (Epoch: 27 March)

Event Time Altitude Azimuth Distance (km) Brightness Sun altitude
Rises 17:31:20 0° 353° (N) 3,544 7.4 -8.6°
Reaches altitude 10° 17:33:50 10° 356° (N) 2,592 6.6 -9.0°
Maximum altitude 17:39:43 72° 81° (E) 943 4.3 -10.1°
Drops below altitude 10° 17:45:31 10° 166° (SSE) 2,562 6.7 -11.1°
Sets 17:47:58 0° 168° (SSE) 3,500 7.4 -11.5°
